Grand Marais, MN

4:45 PM CST on December 07, 2019 (GMT -0600)
Grand Marais

Weather History for KGNA - November, 2019

Change the Weather History Date:

Friday, November 15, 2019

  Actual Average (KCKC) Record (KCKC)
Temperature  
Mean Temperature 22 °F -  
Max Temperature 28 °F 31 °F 55 °F (2001)
Min Temperature 17 °F 20 °F 1 °F (2002)
Degree Days  
Heating Degree Days 43    
Moisture  
Dew Point 11 °F    
Average Humidity 61    
Maximum Humidity 74    
Minimum Humidity 45    
Precipitation  
Precipitation 0.00 in - - ()
Sea Level Pressure  
Sea Level Pressure 30.39 in    
Wind  
Wind Speed 4 mph (South)    
Max Wind Speed 13 mph    
Max Gust Speed 17 mph    
Averages and records for this station are not official NWS values.
T = Trace of Precipitation, MM = Missing Value Source: NWS Daily Summary

Daily Weather History Graph

Daily Weather History Graph

Search for Another Location

Airport or City:

Astronomy

Nov. 15, 2019 Rise Set
Actual Time 7:06 AM CST 4:24 PM CST
Civil Twilight 6:32 AM CST 4:58 PM CST
Nautical Twilight 5:55 AM CST 5:35 PM CST
Astronomical Twilight 5:19 AM CST 6:12 PM CST
Moon 6:52 PM CST (11/15) 10:11 AM CST (11/15)
Length of Visible Light 10h 25m
Length of Day
9h 17m
Waning Gibbous, 90% of the Moon is Illuminated
Nov 15
Waning Gibbous
Nov 19
Last Quarter
Nov 26
New
Dec 4
First Quarter
Dec 11
Full

Hourly Weather History & Observations

Time (CST) Temp. Windchill Dew Point Humidity Pressure Visibility Wind Dir Wind Speed Gust Speed Precip Events Conditions
12:56 AM 24.1 °F - 12.9 °F 62% 30.16 in - Calm Calm - N/A   Unknown
1:56 AM 23.0 °F 17.0 °F 12.9 °F 65% 30.18 in - West 4.6 mph - N/A   Unknown
2:56 AM 21.9 °F 15.7 °F 14.0 °F 72% 30.21 in - West 4.6 mph - N/A   Unknown
3:56 AM 18.0 °F 11.1 °F 10.9 °F 74% 30.23 in - West 4.6 mph - N/A   Unknown
4:56 AM 19.9 °F 13.4 °F 10.9 °F 68% 30.26 in - NNW 4.6 mph - N/A   Unknown
5:56 AM 18.0 °F 11.1 °F 8.1 °F 65% 30.30 in - Variable 4.6 mph - N/A   Unknown
6:56 AM 17.1 °F - 6.1 °F 62% 30.33 in - Calm Calm - N/A   Unknown
7:56 AM 19.0 °F 12.3 °F 7.0 °F 59% 30.37 in - Variable 4.6 mph - N/A   Unknown
9:56 AM 21.0 °F 13.4 °F 7.0 °F 55% 30.42 in - Variable 5.8 mph - N/A   Unknown
10:56 AM 21.9 °F 17.2 °F 7.0 °F 53% 30.43 in - Variable 3.5 mph - N/A   Unknown
11:56 AM 25.0 °F 20.7 °F 6.1 °F 45% 30.44 in - Variable 3.5 mph - N/A   Unknown
12:56 PM 24.1 °F 17.0 °F 9.0 °F 53% 30.45 in - South 5.8 mph - N/A   Unknown
1:56 PM 25.0 °F 20.7 °F 10.0 °F 53% 30.46 in - South 3.5 mph - N/A   Unknown
2:56 PM 25.0 °F 19.3 °F 10.0 °F 53% 30.47 in - SSE 4.6 mph - N/A   Unknown
3:56 PM 25.0 °F 20.7 °F 10.9 °F 55% 30.48 in - Variable 3.5 mph - N/A   Unknown
4:56 PM 24.1 °F - 10.0 °F 55% 30.49 in - Calm Calm - N/A   Unknown
5:56 PM 21.9 °F 17.2 °F 10.9 °F 63% 30.49 in - Variable 3.5 mph - N/A   Unknown
6:56 PM 17.1 °F - 10.0 °F 74% 30.50 in - Calm Calm - N/A   Unknown
8:56 PM 26.1 °F 18.4 °F 17.1 °F 69% 30.49 in - SE 6.9 mph - N/A   Unknown
9:56 PM 26.1 °F 15.0 °F 16.0 °F 66% 30.50 in - SE 12.7 mph - N/A   Unknown
10:56 PM 27.0 °F 17.3 °F 17.1 °F 66% 30.48 in - ESE 10.4 mph 17.3 mph N/A   Unknown
11:56 PM 28.0 °F 19.3 °F 17.1 °F 63% 30.47 in - SE 9.2 mph 17.3 mph N/A   Unknown